Meteo pe oră la Alhimkovo

Astăzi, 28 Ianuarie, Joi

Timp Temperatura Precipitaţii Vânt Presiune Umiditate
00:00 -5°C° 0 mm 2 m/s 738 mmHg 95%
01:00 -6°C° 0 mm 2 m/s 738 mmHg 95%
02:00 -6°C° 0 mm 2 m/s 738 mmHg 96%
03:00 -4°C° 0 mm 1 m/s 738 mmHg 96%
04:00 -6°C° 0 mm 1 m/s 738 mmHg 96%
05:00 -6°C° 0 mm 1 m/s 738 mmHg 96%
06:00 -6°C° 0 mm 1 m/s 738 mmHg 96%
07:00 -6°C° 0 mm 1 m/s 738 mmHg 96%
08:00 -6°C° 0 mm 1 m/s 738 mmHg 96%
09:00 -4°C° 0 mm 1 m/s 738 mmHg 95%
10:00 -3°C° 0 mm 1 m/s 738 mmHg 94%
11:00 -2°C° 0 mm 1 m/s 738 mmHg 93%
12:00 -2°C° 0.1 mm 1 m/s 738 mmHg 94%
13:00 -4°C° 0.1 mm 2 m/s 737 mmHg 95%
14:00 -3°C° 0.1 mm 2 m/s 737 mmHg 95%
15:00 -4°C° 0.3 mm 2 m/s 737 mmHg 96%
16:00 -4°C° 0.3 mm 2 m/s 736 mmHg 96%
17:00 -4°C° 0.3 mm 2 m/s 736 mmHg 97%
18:00 -3°C° 0.4 mm 2 m/s 736 mmHg 97%
19:00 -3°C° 0.4 mm 2 m/s 735 mmHg 97%
20:00 -3°C° 0.4 mm 2 m/s 735 mmHg 98%
21:00 -2°C° 0.1 mm 2 m/s 735 mmHg 98%
22:00 -1°C° 0.1 mm 2 m/s 734 mmHg 98%
23:00 0°C° 0.1 mm 3 m/s 734 mmHg 99%

Mâine, 29 Ianuarie, Vineri

Timp Temperatura Precipitaţii Vânt Presiune Umiditate
00:00 0°C° 0.1 mm 3 m/s 734 mmHg 99%
01:00 0°C° 0.1 mm 3 m/s 734 mmHg 99%
02:00 -1°C° 0.1 mm 4 m/s 733 mmHg 99%
03:00 -2°C° 0.2 mm 4 m/s 733 mmHg 98%
04:00 -2°C° 0.2 mm 4 m/s 732 mmHg 97%
05:00 -3°C° 0.2 mm 4 m/s 731 mmHg 97%
06:00 -2°C° 0.2 mm 4 m/s 731 mmHg 97%
07:00 -2°C° 0.2 mm 4 m/s 731 mmHg 97%
08:00 -1°C° 0.2 mm 4 m/s 731 mmHg 97%
09:00 -1°C° 0.1 mm 4 m/s 730 mmHg 97%
10:00 -1°C° 0.1 mm 4 m/s 730 mmHg 98%
11:00 -1°C° 0.1 mm 4 m/s 730 mmHg 98%
12:00 -1°C° 0.2 mm 4 m/s 729 mmHg 94%
13:00 -1°C° 0.2 mm 5 m/s 729 mmHg 91%
14:00 -2°C° 0.2 mm 5 m/s 729 mmHg 87%
15:00 -4°C° 0.1 mm 5 m/s 728 mmHg 86%
16:00 -5°C° 0.1 mm 5 m/s 728 mmHg 85%
17:00 -5°C° 0.1 mm 5 m/s 728 mmHg 85%
18:00 -6°C° 0 mm 5 m/s 728 mmHg 87%
19:00 -6°C° 0 mm 5 m/s 727 mmHg 89%
20:00 -6°C° 0 mm 5 m/s 727 mmHg 92%
21:00 -5°C° 0.1 mm 4 m/s 727 mmHg 92%
22:00 -5°C° 0.1 mm 4 m/s 727 mmHg 93%
23:00 -5°C° 0.1 mm 4 m/s 727 mmHg 93%

Poimâine, 30 Ianuarie, Sâmbătă

Timp Temperatura Precipitaţii Vânt Presiune Umiditate
00:00 -5°C° 0.1 mm 4 m/s 727 mmHg 93%
01:00 -5°C° 0.1 mm 4 m/s 727 mmHg 94%
02:00 -5°C° 0.1 mm 3 m/s 727 mmHg 94%
03:00 -6°C° 0.1 mm 3 m/s 726 mmHg 94%
04:00 -7°C° 0.1 mm 3 m/s 726 mmHg 94%
05:00 -7°C° 0.1 mm 3 m/s 726 mmHg 94%
06:00 -8°C° 0 mm 3 m/s 726 mmHg 94%
07:00 -8°C° 0 mm 3 m/s 726 mmHg 94%
08:00 -9°C° 0 mm 3 m/s 727 mmHg 95%
09:00 -9°C° 0.1 mm 4 m/s 727 mmHg 94%
10:00 -8°C° 0.1 mm 4 m/s 727 mmHg 93%
11:00 -8°C° 0.1 mm 4 m/s 728 mmHg 92%
12:00 -8°C° 0.1 mm 4 m/s 728 mmHg 92%
13:00 -8°C° 0.1 mm 4 m/s 728 mmHg 92%
14:00 -8°C° 0.1 mm 4 m/s 728 mmHg 92%
15:00 -8°C° 0 mm 4 m/s 728 mmHg 91%
16:00 -8°C° 0 mm 4 m/s 728 mmHg 91%
17:00 -8°C° 0 mm 4 m/s 729 mmHg 90%
18:00 -9°C° 0.1 mm 4 m/s 729 mmHg 90%
19:00 -9°C° 0.1 mm 4 m/s 729 mmHg 90%
20:00 -9°C° 0.1 mm 4 m/s 730 mmHg 89%
21:00 -10°C° 0 mm 4 m/s 730 mmHg 91%
22:00 -9°C° 0 mm 3 m/s 730 mmHg 92%
23:00 -9°C° 0 mm 3 m/s 730 mmHg 93%

31 Ianuarie, Duminică

Timp Temperatura Precipitaţii Vânt Presiune Umiditate
00:00 -9°C° 0 mm 3 m/s 730 mmHg 94%
01:00 -8°C° 0 mm 2 m/s 730 mmHg 94%
02:00 -8°C° 0 mm 2 m/s 730 mmHg 95%
03:00 -8°C° 0.1 mm 2 m/s 729 mmHg 95%
04:00 -8°C° 0.1 mm 2 m/s 729 mmHg 96%
05:00 -7°C° 0.1 mm 2 m/s 728 mmHg 96%
06:00 -8°C° 0.1 mm 2 m/s 728 mmHg 96%
07:00 -8°C° 0.1 mm 2 m/s 727 mmHg 96%
08:00 -7°C° 0.1 mm 1 m/s 727 mmHg 96%
09:00 -7°C° 0.2 mm 2 m/s 727 mmHg 96%
10:00 -6°C° 0.2 mm 2 m/s 726 mmHg 95%
11:00 -6°C° 0.2 mm 2 m/s 726 mmHg 95%
12:00 -5°C° 0.2 mm 2 m/s 726 mmHg 95%
13:00 -6°C° 0.2 mm 3 m/s 725 mmHg 95%
14:00 -6°C° 0.2 mm 3 m/s 725 mmHg 95%
15:00 -7°C° 0.2 mm 3 m/s 725 mmHg 94%
16:00 -7°C° 0.2 mm 3 m/s 725 mmHg 94%
17:00 -8°C° 0.2 mm 4 m/s 725 mmHg 94%
18:00 -9°C° 0 mm 4 m/s 726 mmHg 93%
19:00 -9°C° 0 mm 4 m/s 726 mmHg 93%
20:00 -10°C° 0 mm 4 m/s 726 mmHg 92%
21:00 -10°C° 0 mm 4 m/s 727 mmHg 92%
22:00 -10°C° 0 mm 4 m/s 728 mmHg 92%
23:00 -11°C° 0 mm 4 m/s 729 mmHg 92%

1 Februarie, Luni

Timp Temperatura Precipitaţii Vânt Presiune Umiditate
00:00 -10°C° 0 mm 3 m/s 729 mmHg 92%
01:00 -10°C° 0 mm 3 m/s 730 mmHg 92%
02:00 -10°C° 0 mm 3 m/s 731 mmHg 93%
03:00 -10°C° 0 mm 3 m/s 731 mmHg 92%
04:00 -11°C° 0 mm 4 m/s 732 mmHg 92%
05:00 -11°C° 0 mm 4 m/s 733 mmHg 91%
06:00 -11°C° 0 mm 4 m/s 733 mmHg 91%
07:00 -11°C° 0 mm 4 m/s 734 mmHg 91%
08:00 -10°C° 0 mm 3 m/s 735 mmHg 91%
09:00 -10°C° 0 mm 4 m/s 736 mmHg 90%
10:00 -10°C° 0 mm 4 m/s 736 mmHg 90%
11:00 -9°C° 0 mm 4 m/s 737 mmHg 89%
12:00 -9°C° 0 mm 4 m/s 738 mmHg 89%
13:00 -7°C° 0 mm 3 m/s 738 mmHg 89%
14:00 -7°C° 0 mm 3 m/s 739 mmHg 89%
15:00 -8°C° 0 mm 3 m/s 739 mmHg 91%
16:00 -8°C° 0 mm 2 m/s 739 mmHg 92%
17:00 -9°C° 0 mm 2 m/s 740 mmHg 94%
18:00 -9°C° 0 mm 2 m/s 740 mmHg 94%
19:00 -9°C° 0 mm 2 m/s 739 mmHg 95%
20:00 -10°C° 0 mm 2 m/s 739 mmHg 96%
21:00 -10°C° 0 mm 2 m/s 739 mmHg 96%
22:00 -10°C° 0 mm 2 m/s 739 mmHg 96%
23:00 -10°C° 0 mm 2 m/s 739 mmHg 96%

2 Februarie, Marţi

Timp Temperatura Precipitaţii Vânt Presiune Umiditate
00:00 -10°C° 0 mm 2 m/s 739 mmHg 95%
01:00 -9°C° 0 mm 2 m/s 738 mmHg 95%
02:00 -9°C° 0 mm 2 m/s 738 mmHg 94%
03:00 -9°C° 0.1 mm 2 m/s 737 mmHg 94%
04:00 -10°C° 0.1 mm 3 m/s 736 mmHg 95%
05:00 -10°C° 0.1 mm 3 m/s 735 mmHg 95%
06:00 -9°C° 0.5 mm 3 m/s 735 mmHg 95%
07:00 -9°C° 0.5 mm 3 m/s 734 mmHg 95%
08:00 -10°C° 0.5 mm 4 m/s 733 mmHg 94%
09:00 -9°C° 0.7 mm 3 m/s 733 mmHg 94%
10:00 -8°C° 0.7 mm 3 m/s 732 mmHg 94%
11:00 -8°C° 0.7 mm 3 m/s 732 mmHg 94%
12:00 -8°C° 0.7 mm 3 m/s 731 mmHg 94%
13:00 -8°C° 0.7 mm 3 m/s 731 mmHg 94%
14:00 -8°C° 0.7 mm 3 m/s 731 mmHg 94%
15:00 -8°C° 0.3 mm 3 m/s 731 mmHg 94%
16:00 -8°C° 0.3 mm 3 m/s 732 mmHg 94%
17:00 -9°C° 0.3 mm 4 m/s 732 mmHg 94%
18:00 -9°C° 0.1 mm 4 m/s 733 mmHg 93%
19:00 -9°C° 0.1 mm 4 m/s 733 mmHg 92%
20:00 -10°C° 0.1 mm 5 m/s 733 mmHg 92%
21:00 -10°C° 0 mm 5 m/s 734 mmHg 91%
22:00 -10°C° 0 mm 5 m/s 735 mmHg 90%
23:00 -11°C° 0 mm 5 m/s 735 mmHg 89%
Arată mai mult

Formular de consimțământ

Meteoprog și furnizorii noștri de servicii pot stoca și accesa date personale, precum cookies, identificatori de dispozitiv sau alte tehnologii similare pe dispozitivul dumneavoastră și procesa astfel de date pentru a personaliza conținutul și reclamele, dar și pentru a oferi caracteristici de social media și pentru a analiza traficul.

  • Stocarea și/sau accesarea informațiilor pe dispozitivul dumneavoastră

    Cookies, identificatori de dispozitiv sau alte informații pot fi stocate sau accesate pe dispozitiv în scopurile indicate mai sus.

  • Reclame și conținut personalizat, evaluarea reclamelor și a conținutului, informații despre audiențe și dezvoltarea produselor

    Reclamele și conținutul pot fi personalizate pe baza unui profil. Pot fi adăugate date suplimentare pentru a personaliza mai bine reclamele și conținutul. Performanța reclamelor și conținutului poate fi măsurată. Pot fi obținute informații despre utilizatorii care au văzut reclamele și conținutul. Aceste date pot fi utilizate pentru a dezvolta sau îmbunătăți experiența utilizatorilor, sistemele și software-ul.

Dând clic pe ‘Sunt de acord’, permiteți utilizarea cookie-urilor menționate, a identificatorilor de dispozitiv, balizelor web sau altor tehnologii similare. Setările pot fi modificate din browser-ul dispozitivului dumneavoastră.

În anumite scopuri, interesele legitime pot prima asupra consimțământului. Puteți citi mai multe informații în acest sens în Politica privind Confidențialitatea Datelor și Cookie.